Location: ???????
(56.2167°N, 38.0500°E)
Time: 06:20:58
(UTC+00:00)

Cosmos 1766 - Pass Details

Date: 19 May 2025
Orbit: 443 x 456 km, 82.5° (Epoch: 23 June)

Event Time Altitude Azimuth Distance (km) Brightness Sun altitude
Rises 19:53:39 0° 350° (N) 2,471 8.5 -11.5°
Maximum altitude 19:59:10 55° 74° (ENE) 546 3.2 -11.7°
Enters shadow 20:01:24 19° 148° (SSE) 1,120 4.3 -11.8°
